| time (UTC) | temp F | wind direction | speed MPH | gust MPH | rain 1hr in | rain 24hr in | rain mn in | humidity % | barometer mb |
| 20260505095605 | 73 | 91 | 0.0 | 1.0 | 0.00 | 0.00 | 0.00 | 38 | 1015.1 |
| 20260504232603 | 73 | 194 | 0.0 | 1.0 | 0.00 | 0.00 | 0.00 | 37 | 1013.8 |
| 20260504232104 | 73 | 192 | 1.0 | 2.0 | 0.00 | 0.00 | 0.00 | 37 | 1013.8 |
| 20260504231104 | 74 | 206 | 0.0 | 1.0 | 0.00 | 0.00 | 0.00 | 36 | 1013.7 |
| 20260504230104 | 74 | 202 | 0.0 | 1.0 | 0.00 | 0.00 | 0.00 | 34 | 1013.8 |
| 20260504225604 | 74 | 215 | 1.0 | 1.0 | 0.00 | 0.00 | 0.00 | 33 | 1013.8 |
| 20260504225103 | 74 | 206 | 1.0 | 2.0 | 0.00 | 0.00 | 0.00 | 33 | 1013.7 |
| 20260504224603 | 74 | 225 | 1.0 | 2.0 | 0.00 | 0.00 | 0.00 | 32 | 1013.7 |
| 20260504224105 | 74 | 213 | 0.0 | 1.0 | 0.00 | 0.00 | 0.00 | 31 | 1013.7 |
| 20260504223103 | 74 | 217 | 2.0 | 3.0 | 0.00 | 0.00 | 0.00 | 30 | 1013.8 |
| 20260504222603 | 75 | 273 | 1.0 | 5.0 | 0.00 | 0.00 | 0.00 | 29 | 1013.8 |
| 20260504222104 | 75 | 192 | 1.0 | 2.0 | 0.00 | 0.00 | 0.00 | 28 | 1013.8 |
| 20260504221604 | 75 | 202 | 1.0 | 2.0 | 0.00 | 0.00 | 0.00 | 28 | 1013.8 |
| 20260504221103 | 76 | 253 | 3.0 | 5.0 | 0.00 | 0.00 | 0.00 | 29 | 1013.8 |
| 20260504220603 | 76 | 145 | 3.0 | 5.0 | 0.00 | 0.00 | 0.00 | 30 | 1013.8 |
| 20260504220105 | 76 | 216 | 1.0 | 5.0 | 0.00 | 0.00 | 0.00 | 28 | 1013.7 |
| 20260504215103 | 78 | 190 | 2.0 | 3.0 | 0.00 | 0.00 | 0.00 | 29 | 1013.5 |
| 20260504214603 | 78 | 232 | 1.0 | 3.0 | 0.00 | 0.00 | 0.00 | 29 | 1013.5 |
| 20260504214104 | 77 | 195 | 1.0 | 2.0 | 0.00 | 0.00 | 0.00 | 31 | 1013.5 |
| 20260504213603 | 78 | 331 | 2.0 | 2.0 | 0.00 | 0.00 | 0.00 | 31 | 1013.5 |
| 20260504213103 | 77 | 191 | 2.0 | 3.0 | 0.00 | 0.00 | 0.00 | 34 | 1013.5 |
| 20260504212604 | 77 | 188 | 4.0 | 6.0 | 0.00 | 0.00 | 0.00 | 32 | 1013.5 |
| 20260504211103 | 77 | 200 | 4.0 | 6.0 | 0.00 | 0.00 | 0.00 | 33 | 1013.6 |
| 20260504210104 | 78 | 203 | 1.0 | 2.0 | 0.00 | 0.00 | 0.00 | 32 | 1013.6 |
| 20260504205604 | 78 | 189 | 2.0 | 3.0 | 0.00 | 0.00 | 0.00 | 32 | 1013.6 |
| 20260504205104 | 77 | 218 | 2.0 | 3.0 | 0.00 | 0.00 | 0.00 | 32 | 1013.8 |
| 20260504204603 | 78 | 221 | 1.0 | 5.0 | 0.00 | 0.00 | 0.00 | 33 | 1013.8 |
| 20260504204104 | 79 | 201 | 1.0 | 5.0 | 0.00 | 0.00 | 0.00 | 32 | 1013.8 |
| 20260504203604 | 78 | 235 | 2.0 | 3.0 | 0.00 | 0.00 | 0.00 | 32 | 1013.7 |
| 20260504203103 | 78 | 192 | 0.0 | 2.0 | 0.00 | 0.00 | 0.00 | 31 | 1013.7 |
| 20260504202103 | 78 | 85 | 1.0 | 5.0 | 0.00 | 0.00 | 0.00 | 31 | 1013.9 |
| 20260504201603 | 78 | 202 | 5.0 | 8.0 | 0.00 | 0.00 | 0.00 | 30 | 1014.1 |
| 20260504201103 | 79 | 247 | 5.0 | 8.0 | 0.00 | 0.00 | 0.00 | 31 | 1014.1 |
| 20260504200603 | 79 | 358 | 3.0 | 8.0 | 0.00 | 0.00 | 0.00 | 32 | 1014.1 |
| 20260504200104 | 80 | 97 | 3.0 | 6.0 | 0.00 | 0.00 | 0.00 | 31 | 1014.3 |
| 20260504195603 | 79 | 213 | 3.0 | 5.0 | 0.00 | 0.00 | 0.00 | 31 | 1014.3 |
| 20260504195104 | 80 | 242 | 2.0 | 3.0 | 0.00 | 0.00 | 0.00 | 29 | 1014.3 |
| 20260504194603 | 78 | 175 | 2.0 | 5.0 | 0.00 | 0.00 | 0.00 | 32 | 1014.3 |
| 20260504194103 | 78 | 186 | 0.0 | 3.0 | 0.00 | 0.00 | 0.00 | 34 | 1014.3 |
| 20260504193103 | 77 | 146 | 3.0 | 5.0 | 0.00 | 0.00 | 0.00 | 35 | 1014.4 |
| 20260504192603 | 78 | 202 | 3.0 | 6.0 | 0.00 | 0.00 | 0.00 | 32 | 1014.6 |
| 20260504192104 | 79 | 153 | 2.0 | 3.0 | 0.00 | 0.00 | 0.00 | 31 | 1014.6 |
| 20260504191603 | 80 | 185 | 2.0 | 5.0 | 0.00 | 0.00 | 0.00 | 30 | 1014.7 |
| 20260504191104 | 79 | 214 | 4.0 | 7.0 | 0.00 | 0.00 | 0.00 | 31 | 1014.8 |
| 20260504190604 | 78 | 165 | 2.0 | 7.0 | 0.00 | 0.00 | 0.00 | 31 | 1014.8 |
| 20260504185603 | 79 | 70 | 4.0 | 6.0 | 0.00 | 0.00 | 0.00 | 30 | 1015.1 |
| 20260504185104 | 78 | 82 | 2.0 | 5.0 | 0.00 | 0.00 | 0.00 | 32 | 1015.2 |
| 20260504184605 | 79 | 140 | 2.0 | 3.0 | 0.00 | 0.00 | 0.00 | 33 | 1015.2 |
| 20260504184104 | 78 | 210 | 4.0 | 6.0 | 0.00 | 0.00 | 0.00 | 35 | 1015.2 |
| 20260504183603 | 79 | 183 | 2.0 | 5.0 | 0.00 | 0.00 | 0.00 | 34 | 1015.3 |
| 20260504183103 | 79 | 173 | 1.0 | 3.0 | 0.00 | 0.00 | 0.00 | 36 | 1015.3 |
| 20260504182605 | 78 | 177 | 0.0 | 0.0 | 0.00 | 0.00 | 0.00 | 35 | 1015.6 |
| 20260504181604 | 79 | 353 | 3.0 | 8.0 | 0.00 | 0.00 | 0.00 | 34 | 1015.7 |
| 20260504181103 | 79 | 3 | 2.0 | 2.0 | 0.00 | 0.00 | 0.00 | 33 | 1015.7 |
| 20260504180603 | 78 | 55 | 1.0 | 8.0 | 0.00 | 0.00 | 0.00 | 34 | 1015.7 |
| 20260504175603 | 77 | 195 | 1.0 | 5.0 | 0.00 | 0.00 | 0.00 | 35 | 1015.8 |
| 20260504174604 | 78 | 240 | 3.0 | 6.0 | 0.00 | 0.00 | 0.00 | 34 | 1015.9 |
| 20260504174104 | 77 | 237 | 3.0 | 6.0 | 0.00 | 0.00 | 0.00 | 35 | 1015.9 |
| 20260504173603 | 76 | 202 | 3.0 | 3.0 | 0.00 | 0.00 | 0.00 | 35 | 1015.9 |
| 20260504173103 | 76 | 229 | 2.0 | 3.0 | 0.00 | 0.00 | 0.00 | 35 | 1015.9 |
| 20260504172104 | 76 | 138 | 1.0 | 3.0 | 0.00 | 0.00 | 0.00 | 35 | 1016.1 |
| 20260504171603 | 76 | 298 | 2.0 | 3.0 | 0.00 | 0.00 | 0.00 | 34 | 1016.1 |
| 20260504171103 | 76 | 225 | 2.0 | 3.0 | 0.00 | 0.00 | 0.00 | 35 | 1016.3 |
| 20260504170604 | 77 | 225 | 2.0 | 3.0 | 0.00 | 0.00 | 0.00 | 34 | 1016.3 |
| 20260504151104 | 65 | 22 | 0.0 | 1.0 | 0.00 | 0.00 | 0.00 | 41 | 1018.2 |
| 20260504150603 | 65 | 226 | 2.0 | 3.0 | 0.00 | 0.00 | 0.00 | 41 | 1018.2 |
| 20260504150104 | 65 | 183 | 2.0 | 5.0 | 0.00 | 0.00 | 0.00 | 41 | 1018.4 |
| 20260504141103 | 57 | 94 | 0.0 | 0.0 | 0.00 | 0.00 | 0.00 | 62 | 1018.5 |
| 20260504140104 | 56 | 177 | 0.0 | 1.0 | 0.00 | 0.00 | 0.00 | 64 | 1018.6 |
| 20260504130604 | 46 | 173 | 0.0 | 0.0 | 0.00 | 0.00 | 0.00 | 85 | 1018.8 |
| 20260504130103 | 45 | 198 | 0.0 | 0.0 | 0.00 | 0.00 | 0.00 | 85 | 1018.7 |
| 20260504110604 | 38 | 123 | 0.0 | 0.0 | 0.00 | 0.00 | 0.00 | 89 | 1017.9 |
| 20260504110104 | 38 | 180 | 0.0 | 0.0 | 0.00 | 0.00 | 0.00 | 89 | 1017.7 |
| 20260504100604 | 38 | 135 | 0.0 | 0.0 | 0.00 | 0.00 | 0.00 | 89 | 1017.8 |